sat.trackr.live / text

‹ back to catalog

STARLINK-34781

NORAD 65073 · 2025-165T

PAYLOAD ACTIVE UNKNOWN

§ Identity

Operator
Country
US
Launch date
2025-07-31
Launch site
AFWTR
Launch vehicle
Mass (kg)
RCS (m²)

Purposes: comms

External: N2YO · Heavens-Above · Gunter

§ Orbital elements

Epoch: 2026-05-25T02:28:45.876000Z

Period
95.64 min
Inclination
97.4508°
Eccentricity
0.0001580
Mean motion
15.05660038 rev/d
Perigee alt
548.4 km
Apogee alt
550.6 km
Semi-major
6,927.6 km
B*
2.6413e-4
RAAN
222.2577°
Arg perigee
211.1892°
Mean anomaly
148.9241°
Rev number
4,629

§ Raw data

STARLINK-347811 65073U 25165T   26145.10330875  .00003755  00000+0  26413-3 0  99932 65073  97.4508 222.2577 0001580 211.1892 148.9241 15.05660038 46295

JSON: /api/v1/satellites/65073 · /tle

For live sub-satellite position, see the globe view (requires WebGL).

§ Visibility from observer

Set your observer location to see the next 7 days of passes ≥ 10°. The values pass through the URL so the page stays shareable.

No JS? Fill the form by hand. The geolocation button needs JavaScript.